Location: Bannatyne
(13.0833°N, 59.5333°W)
Time: 02:23:37
(UTC+00:00)

Vanguard 3 - Pass Details

Date: 31 January 2020
Orbit: 508 x 3263 km, 33.3° (Epoch: 19 February)

Event Time Altitude Azimuth Distance (km) Brightness Sun altitude
Rises 21:18:16 0° 284° (WNW) 6,607 12.8 8.4°
Reaches altitude 10° 21:22:59 10° 292° (WNW) 5,852 12.4 7.4°
Maximum altitude 21:40:24 39° 355° (N) 4,251 10.7 3.4°
Drops below altitude 10° 21:56:54 10° 59° (ENE) 5,558 10.8 -0.5°
Enters shadow 22:00:46 - 67° (ENE) 6,176 10.9 -1.4°
Sets 22:01:16 0° 67° (ENE) 6,259 - -1.5°
